Theta_e
320 319 318 320 321 320 317 317 318 318 320 320 321 320 321 322 322 322 320 321 321 321 320 320 319 319 318 318 320 321 323 324 326 330 330 331 332 330 336 343 346 350 350 348
319 318 319 320 318 317 316 317 319 320 321 320 320 321 321 323 323 322 320 322 321 321 320 319 318 319 318 318 318 320 321 324 324 324 326 329 329 331 334 343 348 349 351 348
318 319 319 318 317 316 318 319 320 321 320 319 321 323 325 324 322 320 322 322 322 321 320 320 320 319 319 318 317 317 320 318 322 324 323 327 329 332 336 334 343 349 350 349
318 319 317 317 316 317 318 319 320 320 319 322 323 325 324 323 321 321 322 322 323 321 320 320 321 320 318 318 317 316 317 317 318 322 323 325 327 327 328 331 338 343 344 348
316 317 318 317 318 318 319 318 318 319 320 323 324 325 324 323 323 322 323 322 322 320 320 319 319 318 317 316 316 316 317 316 315 316 321 323 324 324 322 323 330 343 343 340
317 318 318 317 316 318 318 317 319 322 324 331 327 325 325 324 324 323 322 321 320 320 320 319 318 317 316 314 314 314 315 315 316 316 319 322 322 322 320 322 326 342 342 346
317 318 317 317 316 317 318 321 335 334 332 334 327 326 326 325 324 324 322 320 320 320 320 319 317 315 314 313 312 312 313 315 315 314 319 320 322 321 319 321 326 341 343 341
318 323 319 318 318 320 322 323 331 335 331 327 325 325 324 327 326 323 321 321 321 321 320 318 317 314 313 312 312 311 311 313 314 314 315 319 320 322 319 319 325 335 342 341
320 318 320 320 318 317 322 321 323 328 326 324 323 324 326 326 324 323 323 323 321 320 320 318 316 314 313 312 311 310 310 311 312 313 314 317 318 321 320 320 324 335 343 341
319 322 321 320 317 317 319 322 328 327 330 329 324 323 323 327 326 325 323 321 321 321 319 317 315 313 312 311 310 309 309 310 311 312 314 316 317 320 322 322 324 334 339 343
317 323 319 319 320 319 319 321 322 323 326 329 328 323 327 323 323 323 322 322 321 320 318 317 314 312 311 309 309 308 309 309 309 310 312 314 316 318 322 325 323 330 336 341
317 322 326 322 320 320 321 325 325 336 328 325 325 327 323 324 322 322 322 322 320 319 318 316 314 312 310 309 308 307 307 307 308 309 310 311 313 316 320 325 325 324 334 342
319 324 330 325 323 321 321 321 320 324 328 328 328 324 324 323 323 324 324 321 320 319 318 315 313 311 309 308 307 307 307 307 307 308 309 310 312 316 319 320 325 325 329 339
319 323 324 329 326 323 326 325 322 323 331 327 325 323 322 322 323 323 323 320 320 319 317 314 312 310 309 308 307 306 306 306 306 306 307 309 311 313 317 320 324 325 329 334
321 321 319 320 320 319 320 320 319 321 322 327 324 323 323 323 323 322 321 320 320 318 315 313 311 311 309 308 307 306 305 305 305 306 307 308 309 312 315 318 321 326 327 332
321 318 318 319 319 320 320 319 319 319 320 320 320 322 321 322 320 320 320 320 318 317 314 312 311 311 310 308 306 306 305 304 304 305 306 306 308 311 314 317 320 326 327 332
321 321 321 324 321 322 325 321 320 321 321 321 323 321 321 320 320 320 320 318 317 315 313 312 310 310 309 307 306 305 304 303 303 304 305 306 308 310 313 317 320 328 326 331
322 322 324 326 324 326 322 321 321 321 320 319 318 320 319 319 319 319 318 316 315 314 312 312 311 309 307 306 304 303 302 302 302 303 304 305 307 309 312 316 318 322 329 329
322 323 326 328 328 323 321 321 321 324 324 321 319 317 319 318 319 319 316 316 315 313 313 313 310 308 306 304 303 302 301 301 302 302 303 304 305 307 310 312 318 322 328 329
321 322 325 327 330 326 322 321 319 317 326 321 319 319 319 319 324 322 319 316 313 312 313 311 309 306 305 303 302 301 301 301 301 301 302 303 304 305 308 311 317 318 329 330
321 323 324 325 327 322 319 318 319 322 326 321 319 318 319 322 324 319 316 313 313 313 311 308 308 306 304 302 301 300 300 300 300 300 302 302 303 304 307 311 315 319 328 329
326 324 326 325 326 326 319 319 322 322 323 319 317 316 319 319 319 317 314 314 312 311 309 308 307 305 303 301 300 300 299 299 300 300 302 303 305 306 309 313 317 320 327 331
323 325 329 325 326 321 319 324 324 320 317 317 317 318 318 318 317 314 314 313 312 310 308 307 306 304 302 300 299 299 299 299 299 301 302 305 311 310 311 314 318 324 329 330
323 322 323 322 320 320 322 322 320 319 319 318 317 317 317 317 315 313 312 312 310 308 307 306 305 304 301 299 299 298 299 298 300 301 302 305 308 316 315 319 322 327 327 329
321 321 322 323 322 320 318 319 318 320 320 318 317 317 316 314 313 312 312 310 308 307 306 306 305 303 301 299 298 298 298 298 300 301 302 304 307 311 318 315 315 316 313 318
315 321 323 325 322 321 320 320 318 317 317 317 317 316 314 313 312 311 310 308 307 305 306 306 305 303 301 298 298 298 297 298 300 301 300 302 306 307 311 314 318 314 313 313
Wind_Speed
15 8 11 15 5 7 9 11 14 12 13 16 15 18 18 17 16 13 9 6 4 4 6 9 12 13 14 16 20 19 19 21 19 23 22 24 26 32 37 32 43 41 41 45
7 14 17 3 1 6 9 13 14 15 14 9 16 21 21 18 13 12 9 8 6 5 7 10 13 15 15 15 16 22 22 21 18 23 25 26 31 36 35 32 39 56 38 47
16 12 6 2 7 10 12 13 15 14 14 18 23 22 23 22 9 9 9 9 6 5 7 9 11 16 18 16 17 20 19 22 25 21 27 27 28 28 32 34 38 42 47 49
12 13 10 9 11 11 15 9 7 11 14 14 10 14 18 9 15 13 16 15 10 2 7 10 13 18 20 21 21 21 20 17 23 26 24 27 25 27 33 36 33 43 47 48
8 10 8 13 13 9 11 10 12 15 17 17 21 11 15 15 16 17 20 12 4 2 8 13 14 19 22 24 28 25 18 16 22 28 31 26 27 28 29 35 38 38 38 50
18 10 4 9 13 3 8 11 18 20 16 14 21 15 11 5 11 10 10 5 2 6 11 13 20 22 22 24 24 29 26 23 19 26 33 28 28 27 30 32 34 35 38 34
19 20 15 8 10 11 13 9 5 5 10 13 10 6 12 8 11 8 7 3 2 8 11 16 18 19 23 23 22 25 30 30 25 27 30 31 28 25 27 30 30 33 28 28
15 14 21 15 13 6 11 10 5 5 4 10 18 7 4 12 12 12 5 2 7 10 13 16 17 18 23 22 22 22 25 32 31 27 32 29 30 22 28 31 31 31 35 34
9 17 14 11 8 6 8 8 2 6 9 11 10 11 8 14 9 6 4 3 10 12 12 16 15 18 20 22 21 22 26 30 36 29 32 31 32 24 28 30 28 26 36 41
5 9 11 12 6 12 9 5 4 4 5 7 7 9 7 10 5 4 4 9 10 11 12 15 14 16 19 23 24 26 29 33 35 35 32 30 29 31 25 25 26 21 29 27
8 5 6 12 12 13 9 11 8 6 6 4 6 4 6 10 8 3 9 12 13 12 14 15 14 19 22 24 24 26 29 32 32 34 36 35 31 31 27 21 27 20 22 35
13 6 9 15 14 18 16 14 15 6 7 8 10 14 6 2 1 7 12 8 6 9 12 15 15 19 23 22 25 25 27 28 30 33 35 36 34 31 30 20 20 22 17 20
8 6 7 11 15 10 9 15 14 12 10 15 9 6 5 7 9 13 15 9 11 12 13 14 14 14 21 20 22 24 27 30 31 32 33 35 33 31 27 30 19 22 16 15
1 9 11 8 10 3 13 15 15 15 11 13 19 24 22 19 18 19 11 11 12 11 14 14 14 16 19 20 23 26 26 28 31 32 32 34 32 34 29 29 23 17 18 14
8 12 16 20 22 18 17 19 18 20 20 19 21 24 21 20 17 11 10 12 13 14 13 14 16 15 20 20 24 25 25 27 29 32 32 33 34 35 31 27 27 17 15 13
12 12 15 20 20 20 22 21 22 23 24 26 25 25 19 14 14 14 14 14 14 13 13 16 15 17 17 21 24 26 26 28 30 32 31 33 33 33 32 26 27 13 15 11
18 13 11 16 17 19 20 20 21 20 20 18 20 18 12 13 14 13 13 13 11 12 13 15 15 14 18 24 24 26 27 29 29 32 32 31 32 31 32 26 25 16 14 15
15 18 11 10 12 12 11 5 6 8 10 14 14 11 10 10 11 12 11 8 9 13 14 14 11 16 22 26 27 26 27 28 29 29 31 31 30 30 31 28 26 27 10 14
16 15 6 6 10 15 20 12 7 14 10 11 10 10 7 10 11 9 5 8 11 12 12 11 12 17 21 25 26 25 26 27 28 29 30 30 30 29 29 29 26 24 13 14
18 13 9 6 5 7 7 6 4 4 5 3 5 1 8 10 9 8 10 10 11 14 16 12 12 16 22 23 26 27 26 26 26 29 33 33 30 28 28 28 27 27 17 9
17 17 18 14 9 9 11 15 9 4 1 7 1 5 8 7 3 5 7 10 13 11 13 13 13 16 21 23 26 26 25 25 31 34 34 32 30 27 26 28 26 26 22 12
15 14 12 14 14 18 6 7 9 1 5 3 4 7 8 9 6 6 9 10 11 11 15 13 13 17 20 22 24 25 24 31 33 34 32 31 30 24 20 21 24 24 23 15
7 7 7 13 7 5 5 8 10 5 3 5 5 7 8 8 6 7 8 9 10 11 13 12 12 17 19 22 23 24 29 31 35 33 30 31 26 14 20 22 20 21 12 8
8 11 7 10 12 11 12 10 7 7 11 10 9 7 7 6 5 7 8 9 9 12 12 11 13 16 18 22 24 25 27 30 31 31 30 30 28 12 20 18 12 9 8 13
10 3 4 8 8 10 8 11 7 12 11 12 10 3 5 5 6 6 7 8 9 11 13 10 10 15 17 22 24 26 29 30 26 26 26 25 25 25 14 9 13 12 14 9
10 12 8 4 11 8 9 11 8 4 7 8 4 5 5 4 4 5 7 8 9 11 11 11 12 14 17 21 23 26 30 30 26 23 21 23 20 20 22 21 14 10 12 15
Wind_Direction
203 265 253 255 225 7 318 291 278 280 276 269 275 280 272 276 266 249 224 208 246 290 320 324 332 329 323 319 312 303 296 298 303 297 298 296 291 284 282 268 255 251 211 204
226 251 250 60 340 294 295 279 276 272 266 275 271 273 279 267 253 235 200 211 232 274 308 332 323 321 315 309 311 308 298 297 301 301 299 298 293 287 281 281 256 247 238 202
254 278 85 216 268 271 248 257 264 288 316 292 269 265 265 236 201 180 197 222 223 265 315 311 325 326 315 313 307 301 293 304 302 295 297 291 294 301 283 269 264 254 247 207
263 258 210 237 252 263 266 252 306 282 284 277 320 290 292 196 191 203 209 210 216 319 304 307 328 332 329 320 310 296 293 293 301 305 300 293 295 291 287 292 285 253 243 257
265 221 205 235 247 276 266 314 299 281 276 277 269 266 262 253 188 203 225 184 113 286 305 329 329 327 319 320 322 316 307 303 299 295 292 285 286 284 292 288 282 260 248 249
257 277 268 277 272 248 268 284 274 256 248 252 259 237 274 185 202 159 103 124 104 342 327 310 338 330 325 322 320 326 316 307 303 300 286 282 284 286 288 287 289 253 240 232
234 233 225 225 247 234 226 254 286 287 214 236 249 271 257 288 183 124 108 107 0 321 306 344 329 330 330 334 330 319 316 313 304 297 289 287 284 274 288 290 288 262 226 220
279 214 200 174 224 293 206 239 239 259 263 315 321 257 265 79 86 96 114 177 245 338 339 332 321 332 324 326 322 309 311 308 303 297 294 288 288 274 293 289 284 299 227 228
305 241 156 156 191 208 224 222 261 316 293 263 241 267 119 117 124 164 210 352 335 324 331 324 320 333 332 329 322 316 309 304 306 305 298 293 298 285 287 291 302 281 244 226
281 268 196 190 213 230 232 8 212 198 252 261 267 306 304 147 177 91 342 317 337 316 335 324 329 344 331 332 325 324 319 311 308 312 304 300 301 300 290 293 298 281 268 229
249 215 252 164 204 226 188 229 224 249 260 265 301 268 115 359 351 15 310 317 318 343 333 325 336 334 330 329 326 322 315 312 310 307 309 310 307 306 304 297 311 299 305 234
225 235 251 223 221 220 237 221 211 209 234 227 265 277 318 1 4 283 272 282 347 345 328 329 331 342 334 325 325 318 310 308 308 310 310 308 309 308 309 301 312 312 291 256
187 235 239 248 250 184 228 246 247 255 238 249 259 255 159 218 247 276 314 339 332 332 341 333 345 336 334 324 322 322 319 314 310 312 310 307 306 306 309 313 313 314 309 288
94 237 224 246 170 235 220 222 228 231 239 246 243 268 279 292 300 290 318 346 325 349 344 334 345 327 331 322 326 319 314 313 314 311 310 308 309 308 307 304 307 311 309 310
192 243 255 254 268 272 259 256 253 244 240 235 257 262 275 273 284 341 331 329 346 340 341 346 330 320 327 326 324 319 317 315 313 310 308 308 308 305 306 308 307 300 300 290
182 238 252 259 260 260 260 258 257 256 257 259 265 269 276 291 343 330 330 353 340 338 347 328 325 325 330 331 326 323 320 316 314 309 307 308 306 304 302 299 297 279 302 310
203 206 239 263 272 271 262 252 256 260 252 260 261 273 311 330 324 336 351 335 339 342 328 327 327 324 330 328 328 322 320 315 311 307 306 306 306 305 301 300 300 290 306 327
209 213 222 251 287 268 252 246 279 272 280 294 298 310 311 323 338 334 334 6 340 337 326 317 322 334 330 328 328 323 319 315 312 307 308 307 306 304 304 301 301 309 304 318
204 194 227 235 227 265 296 296 279 261 252 283 285 292 331 330 313 319 57 358 348 328 312 310 349 337 340 329 325 321 318 316 312 308 305 306 306 304 302 306 295 301 297 317
198 206 188 201 221 232 232 124 52 8 273 227 167 348 301 312 299 300 331 351 326 309 294 346 349 347 339 328 325 321 319 318 313 312 308 302 297 290 289 292 297 294 291 305
209 206 209 213 233 253 241 275 125 251 154 142 232 307 288 295 317 342 352 314 284 301 341 346 3 351 336 328 326 320 321 320 314 311 306 300 290 281 280 280 288 289 292 292
212 198 213 210 227 241 239 192 203 148 147 217 298 315 309 312 335 353 309 294 325 337 339 360 359 345 335 329 328 323 324 322 319 316 311 303 287 269 264 273 287 273 274 296
207 254 171 187 207 194 246 247 205 225 268 298 298 300 305 310 319 305 302 320 336 334 339 5 353 343 337 336 332 323 326 327 326 325 324 325 324 261 257 258 270 268 253 293
206 231 210 195 224 214 213 232 174 205 245 262 299 304 307 294 306 304 327 331 329 341 339 355 355 342 337 339 333 330 330 333 332 333 332 331 336 293 261 271 285 268 17 12
273 156 297 268 218 189 218 224 236 225 226 245 262 280 287 311 298 319 332 330 337 341 345 351 7 345 340 339 335 338 337 338 338 336 336 340 348 358 13 44 31 36 43 62
258 229 205 201 243 237 214 255 304 274 298 229 246 258 235 253 315 338 334 337 348 338 325 355 7 346 346 341 337 343 345 342 339 343 347 341 351 5 10 7 16 33 61 66